Flag for Germany Weather past 2 weeks in Moers, North Rhine-Westphalia, Germany

Now
48 °F

Passing clouds.


Feels Like: 46 °F
Forecast: 49 / 59 °F
Wind: 6 mph from South

Location: Duesseldorf

Current Time: Oct 26, 2014 at 12:17:05 AM

Latest Report: Oct 25, 2014 at 11:50 PM


Visibility: N/A

Pressure: 30.21 "Hg

Humidity: 87%

Dew point: 45 °F

Location of MoersLocation

Historic Weather in Moers — Graph

°F

Moers temperature yesterday

Maximum temperature yesterday: 57 °F (at 2:50 PM)
Minimum temperature yesterday: 50 °F (at 11:20 PM)
Average temperature yesterday: 54 °F

Past Weeks' High & Low Weather Summary

 TemperatureHumidityPressure
High75 °F (Oct 19, 2:20 PM)100% (Oct 11, 4:50 AM)30.21 "Hg (Oct 11, 4:50 AM)
Low45 °F (Oct 21, 10:50 PM)49% (Oct 14, 2:20 PM)29.50 "Hg (Oct 21, 3:20 PM)
Average57 °F81%29.92 "Hg
* Reported Oct 10 11:20 PM — Oct 25 11:20 PM, Moers, Weather by CustomWeather, © 2014

Note: Actual official high and low records may vary slightly from our data, if they occured in-between our weather recording intervals... More about our weather records

Advertising

Moers weather history for previous 24 hours

 ConditionsComfort  
Time TempWeatherWind HumidityBarometerVisibility
11:20 PM
Oct 25
50 °FFog.6 mph88%30.21 "HgN/A
10:50 PM52 °FPassing clouds.7 mph88%30.21 "HgN/A
10:20 PM54 °FPassing clouds.6 mph88%30.18 "HgN/A
9:50 PM54 °FPassing clouds.3 mph88%30.18 "HgN/A
9:20 PM54 °FPassing clouds.6 mph94%30.18 "HgN/A
8:50 PM55 °FPassing clouds.9 mph94%30.15 "Hg5 mi
8:20 PM55 °FPassing clouds.8 mph100%30.15 "Hg4 mi
7:50 PM55 °FPartly cloudy.6 mph100%30.15 "Hg4 mi
7:20 PM55 °FMostly cloudy.6 mph100%30.15 "Hg5 mi
6:50 PM55 °FDrizzle. Fog.7 mph100%30.12 "Hg2 mi
6:20 PM55 °FDrizzle. Fog.6 mph100%30.12 "Hg2 mi
5:50 PM55 °FMore clouds than sun.7 mph94%30.12 "Hg4 mi
5:20 PM55 °FDrizzle. Fog.6 mph100%30.12 "Hg3 mi
4:50 PM55 °FDrizzle. Mostly cloudy.6 mph100%30.12 "Hg4 mi
4:20 PM55 °FDrizzle. Fog.6 mph94%30.12 "Hg2 mi
3:50 PM57 °FLight rain. Low clouds.8 mph88%30.09 "Hg6 mi
3:20 PM57 °FPartly sunny.8 mph88%30.09 "HgN/A
2:50 PM57 °FMore clouds than sun.7 mph88%30.09 "Hg6 mi
2:20 PM55 °FBroken clouds.7 mph94%30.09 "HgN/A
1:50 PM55 °FMostly cloudy.6 mph94%30.09 "Hg4 mi
1:20 PM55 °FDrizzle. Fog.7 mph94%30.09 "Hg2 mi
12:50 PM55 °FDrizzle. Fog.7 mph94%30.09 "Hg2 mi
12:20 PM54 °FDrizzle. Fog.6 mph100%30.09 "Hg3 mi
11:50 AM54 °FFog.6 mph94%30.09 "Hg3 mi
11:20 AM54 °FFog.7 mph94%30.09 "Hg3 mi
10:50 AM54 °FFog.7 mph94%30.09 "Hg3 mi
10:20 AM54 °FFog.7 mph94%30.07 "Hg3 mi
9:50 AM52 °FDrizzle. Fog.7 mph100%30.07 "Hg2 mi
9:20 AM52 °FDrizzle. Fog.8 mph100%30.07 "Hg1 mi
8:50 AM52 °FDrizzle. Fog.8 mph94%30.07 "Hg1 mi
8:20 AM52 °FDrizzle. Fog.8 mph94%30.07 "Hg1 mi
7:50 AM52 °FPartly cloudy.8 mph94%30.07 "Hg4 mi
7:20 AM52 °FPartly cloudy.10 mph94%30.04 "Hg4 mi
6:50 AM52 °FPartly cloudy.10 mph94%30.04 "Hg4 mi
6:20 AM52 °FPassing clouds.12 mph94%30.04 "Hg4 mi
5:50 AM52 °FDrizzle. Low clouds.8 mph94%30.04 "HgN/A
5:20 AM52 °FOvercast.9 mph94%30.04 "HgN/A
4:50 AM52 °FPassing clouds.7 mph94%30.04 "HgN/A
4:20 AM52 °FPassing clouds.9 mph94%30.04 "HgN/A
3:50 AM52 °FPassing clouds.12 mph94%30.04 "Hg5 mi
3:20 AM52 °FPassing clouds.8 mph94%30.04 "Hg4 mi
2:50 AM52 °FDrizzle. Overcast.8 mph88%30.04 "HgN/A
2:20 AM54 °FDrizzle. Overcast.9 mph82%30.04 "HgN/A
1:50 AM54 °FLight rain. Passing clouds.8 mph77%30.04 "HgN/A
1:20 AM54 °FPassing clouds.9 mph77%30.04 "HgN/A
12:50 AM54 °FOvercast.9 mph77%30.04 "HgN/A
12:20 AM54 °FOvercast.9 mph77%30.07 "HgN/A
Weather by CustomWeather, © 2014

See weather overviewHow to use our weather pages